Temp
61 60 60 60 60 60 60 60 60 61 61 61 61 61 61 61 61 69 66 71 71 68 67 75 77 79 81 76 80 82 66 63 67 72 77 89 88 97 101 96 100 102 98 96 97
60 60 60 60 60 60 60 60 60 60 61 61 61 61 61 61 63 67 69 69 68 68 71 74 74 78 73 74 75 72 65 65 75 79 79 85 88 91 93 94 94 97 93 95 96
60 60 60 60 60 60 59 60 60 60 60 60 61 60 60 62 62 69 70 69 67 67 74 76 77 75 70 75 74 72 65 72 76 80 83 83 85 92 89 88 93 92 90 92 93
60 60 60 60 60 59 59 59 59 60 60 60 60 60 60 64 60 73 70 69 67 72 74 75 74 69 67 66 75 67 73 74 77 80 81 80 85 85 88 89 99 98 99 93 91
59 60 59 59 59 59 59 59 59 59 59 60 60 60 63 64 69 74 69 70 74 76 74 72 69 69 65 69 72 69 72 76 79 79 79 81 79 82 85 92 97 99 98 95 92
59 59 59 59 59 58 58 58 59 59 59 59 60 60 63 60 83 80 79 79 79 78 75 75 71 73 68 67 66 72 73 74 77 77 78 76 77 81 84 90 90 93 94 97 93
58 58 58 58 58 58 58 58 58 58 59 59 61 65 63 66 84 84 82 79 81 78 72 76 76 70 70 64 72 71 64 69 72 75 74 78 71 73 83 87 85 88 92 93 93
58 58 57 58 58 58 58 58 58 58 59 60 61 66 62 84 86 82 83 80 83 80 77 77 77 70 67 70 66 62 63 56 68 72 74 73 62 75 82 82 82 86 90 92 90
58 57 57 57 57 58 58 57 58 59 61 61 62 65 66 73 76 82 83 75 78 78 77 78 72 65 65 58 55 58 50 56 61 72 71 70 63 74 81 81 80 84 88 89 89
57 57 56 57 57 57 56 57 60 60 63 71 72 64 72 73 79 80 83 77 72 72 70 68 66 59 61 56 44 51 53 57 57 67 69 67 66 72 78 80 79 82 85 88 87
57 56 56 56 56 56 58 66 66 62 67 68 71 70 75 80 82 77 80 75 73 68 58 65 55 53 58 61 60 57 52 50 58 65 66 65 66 70 76 78 80 81 82 85 85
57 56 56 56 56 56 60 72 76 76 65 76 77 77 80 79 68 70 79 65 64 56 62 61 51 61 64 62 58 55 51 51 58 62 62 65 65 71 75 76 79 81 81 83 84
56 56 56 56 56 58 74 81 87 84 64 71 77 75 76 78 68 68 73 67 58 59 59 56 60 62 56 53 54 53 50 49 51 59 64 64 62 66 74 78 81 84 83 85 85
56 56 56 55 58 83 80 85 87 82 56 65 71 75 78 79 63 73 74 66 63 56 59 58 65 60 55 50 56 49 58 56 54 52 46 61 49 62 69 72 76 80 82 84 85
55 56 55 54 70 78 82 87 84 76 43 68 70 85 81 67 64 62 75 65 51 53 57 52 57 54 46 55 58 50 53 51 51 50 46 50 50 60 69 66 72 78 83 85 87
55 56 55 76 75 86 88 85 78 55 45 62 69 67 68 70 62 69 65 64 63 54 57 56 65 61 55 62 60 54 43 48 48 47 33 46 52 56 65 68 72 78 81 85 88
55 55 57 74 78 89 86 77 57 49 66 56 58 65 65 64 65 66 62 57 48 38 40 54 59 63 60 56 61 56 41 36 34 35 37 56 51 56 70 75 76 77 80 83 88
54 53 69 82 89 87 79 64 50 59 57 63 62 65 61 65 63 64 62 55 52 49 40 42 42 56 64 59 54 53 48 33 28 37 45 57 49 59 75 80 80 81 82 84 87
53 79 80 86 88 85 70 57 53 56 60 56 59 56 57 62 61 60 58 51 51 50 37 36 43 61 62 67 63 41 43 49 34 42 41 55 60 71 76 77 79 79 81 81 85
66 77 82 87 87 78 68 53 60 63 63 60 51 56 51 55 55 56 55 50 48 53 51 42 35 55 61 68 66 54 57 44 41 33 37 51 52 59 67 71 78 77 79 82 85
67 75 82 88 85 74 58 58 62 67 65 57 54 53 54 53 55 55 54 51 54 53 56 49 40 48 60 61 58 54 48 42 38 36 38 45 51 65 62 75 74 78 81 83 86
70 69 83 86 69 69 61 62 59 65 66 61 60 58 54 56 53 54 53 54 57 54 49 51 44 42 51 64 71 66 44 45 36 38 44 45 48 61 59 77 79 81 83 87 88
65 75 83 79 58 59 64 65 67 63 61 59 56 60 61 55 49 55 58 63 63 58 48 48 43 36 45 62 67 62 61 53 45 42 41 38 43 56 61 68 82 81 85 87 87
68 66 73 74 72 61 58 61 61 68 62 63 60 62 57 54 58 53 55 62 64 56 54 50 44 40 33 44 53 54 62 57 50 39 41 39 43 51 58 73 77 79 83 85 85
72 65 65 58 62 63 64 63 58 57 64 64 58 58 55 50 53 52 56 58 60 58 58 52 44 47 50 55 58 61 63 59 55 56 47 42 40 49 59 67 69 66 68 84 84
63 61 65 61 66 65 62 60 58 60 59 57 55 57 58 52 52 48 51 51 50 56 54 55 45 48 50 64 65 62 65 65 63 61 50 45 49 63 63 64 63 59 55 60 60
70 69 64 58 63 63 62 61 60 62 62 64 60 58 55 56 59 60 59 57 55 50 51 51 47 45 43 55 54 55 51 61 63 55 52 46 51 60 57 55 52 52 51 55 56
MSLP
1018.81 1018.41 1018.04 1017.67 1017.32 1017.03 1016.77 1016.46 1016.17 1015.87 1015.55 1015.23 1014.96 1014.69 1014.39 1014.03 1013.49 1012.04 1011.06 1010.49 1010.25 1010.43 1010.27 1009.39 1008.40 1007.47 1006.93 1006.42 1005.53 1004.90 1003.37 1001.05 1000.03 998.77 997.50 996.18 994.64 993.47 993.12 993.11 992.81 993.13 993.79 995.11 996.80
1018.75 1018.35 1017.95 1017.54 1017.21 1016.89 1016.62 1016.35 1016.08 1015.82 1015.49 1015.18 1014.86 1014.61 1014.34 1014.02 1013.05 1010.89 1010.36 1010.21 1010.27 1010.44 1009.84 1008.37 1007.15 1006.46 1006.11 1005.48 1005.25 1004.21 1002.57 1001.09 1000.73 999.33 997.84 996.54 995.13 993.97 993.01 992.61 992.76 993.69 995.26 996.34 996.79
1018.61 1018.17 1017.80 1017.43 1017.05 1016.71 1016.49 1016.22 1015.95 1015.69 1015.44 1015.17 1014.83 1014.51 1014.25 1013.89 1011.73 1009.38 1009.84 1009.94 1010.41 1010.53 1009.75 1008.61 1007.41 1006.65 1005.53 1004.74 1004.22 1003.67 1001.89 1001.51 1000.29 999.74 998.62 997.16 995.78 994.59 993.45 992.63 992.62 993.72 995.38 996.52 996.76
1018.46 1018.03 1017.58 1017.21 1016.86 1016.59 1016.30 1016.05 1015.83 1015.59 1015.39 1015.10 1014.78 1014.45 1014.09 1013.46 1010.04 1009.15 1009.60 1009.96 1010.32 1010.13 1009.24 1007.77 1006.79 1006.08 1005.28 1004.39 1003.61 1003.02 1001.92 1001.33 1000.65 999.79 998.86 997.67 996.59 995.24 994.24 993.55 992.79 993.61 994.44 995.89 996.61
1018.39 1017.89 1017.47 1017.06 1016.69 1016.35 1016.12 1015.84 1015.66 1015.48 1015.24 1015.02 1014.75 1014.47 1013.66 1011.43 1008.76 1009.49 1009.87 1009.93 1009.79 1008.99 1008.21 1007.42 1006.69 1005.92 1004.92 1004.15 1003.52 1002.33 1001.51 1000.98 1000.50 1000.04 999.28 998.58 997.29 996.17 995.07 994.42 993.62 993.70 994.53 995.23 996.21
1018.30 1017.83 1017.35 1016.91 1016.49 1016.17 1015.86 1015.65 1015.49 1015.32 1015.13 1014.91 1014.68 1014.53 1013.13 1009.83 1007.65 1008.75 1008.90 1008.70 1008.36 1007.81 1007.43 1007.22 1006.71 1006.14 1005.29 1004.65 1003.95 1002.71 1001.53 1000.68 1000.23 999.77 999.43 998.73 997.82 997.14 995.87 995.51 994.90 994.15 994.29 994.46 995.34
1018.05 1017.59 1017.11 1016.64 1016.28 1015.91 1015.57 1015.38 1015.33 1015.07 1014.86 1014.66 1014.47 1013.99 1011.93 1009.02 1007.71 1007.81 1008.16 1008.07 1007.89 1007.77 1007.53 1007.24 1006.89 1006.45 1005.85 1004.89 1004.01 1003.22 1002.40 1001.31 1000.33 999.74 999.51 999.23 998.21 997.46 996.95 996.37 995.80 995.11 994.63 994.72 994.79
1017.78 1017.23 1016.79 1016.35 1015.96 1015.55 1015.24 1015.03 1014.85 1014.63 1014.36 1014.21 1014.23 1013.35 1010.09 1007.65 1007.65 1007.62 1007.57 1007.14 1007.11 1007.40 1007.63 1007.49 1007.27 1006.77 1006.20 1005.60 1004.74 1003.86 1002.83 1001.35 1000.42 999.91 999.67 999.61 997.87 997.77 997.57 996.99 996.23 995.38 994.80 994.75 995.78
1017.52 1016.89 1016.48 1016.05 1015.63 1015.14 1014.76 1014.61 1014.44 1014.17 1013.89 1013.83 1013.53 1012.05 1008.22 1008.17 1007.69 1007.01 1007.12 1007.21 1007.01 1007.17 1007.45 1007.50 1007.44 1006.81 1006.38 1005.63 1004.71 1003.85 1002.50 1001.53 1000.42 1000.03 999.66 998.96 997.99 997.75 997.42 997.19 996.53 995.51 994.79 994.73 995.41
1017.27 1016.59 1016.09 1015.65 1015.18 1014.70 1014.24 1014.19 1013.80 1013.88 1013.35 1012.53 1011.62 1010.60 1008.11 1006.43 1006.50 1006.83 1006.79 1007.44 1007.46 1007.12 1006.75 1006.76 1006.65 1005.96 1005.28 1004.95 1004.05 1003.13 1002.30 1001.32 1000.44 999.82 999.00 998.26 997.55 997.64 997.26 996.57 996.29 995.76 994.92 994.73 995.02
1016.99 1016.30 1015.70 1015.21 1014.77 1014.44 1013.91 1013.25 1013.16 1012.57 1011.32 1009.43 1008.20 1007.20 1006.15 1006.43 1006.55 1006.56 1006.48 1006.68 1006.69 1006.69 1005.90 1005.45 1005.71 1004.57 1004.06 1003.87 1003.95 1003.79 1003.73 1002.58 1001.44 1000.45 998.95 997.72 997.03 996.80 996.78 996.10 995.26 995.55 995.05 994.63 994.64
1016.80 1016.03 1015.32 1014.76 1014.45 1014.29 1013.98 1011.22 1009.88 1009.86 1008.51 1007.38 1006.71 1006.08 1005.77 1005.95 1005.95 1006.49 1006.71 1006.74 1006.29 1006.13 1005.45 1004.43 1004.22 1003.68 1003.47 1003.75 1003.92 1003.99 1003.68 1002.51 1001.75 1000.97 999.83 997.57 996.23 996.03 995.72 995.37 994.83 994.55 994.86 994.55 994.58
1016.54 1015.75 1015.03 1014.51 1014.14 1013.78 1011.21 1009.34 1008.87 1008.71 1008.45 1006.36 1005.56 1005.17 1005.21 1005.19 1005.41 1005.85 1006.24 1006.83 1006.76 1005.48 1004.84 1003.80 1002.78 1003.47 1004.44 1004.50 1003.62 1003.76 1003.84 1003.69 1002.54 1001.23 999.41 997.65 996.30 995.47 995.02 994.63 994.07 993.60 994.07 993.97 994.15
1016.37 1015.50 1014.89 1014.45 1014.20 1010.35 1009.36 1009.15 1008.72 1009.05 1007.94 1005.41 1004.95 1004.33 1004.22 1003.95 1005.82 1007.07 1006.61 1006.89 1006.07 1005.49 1004.65 1003.56 1002.56 1002.78 1003.32 1004.05 1003.83 1003.08 1003.26 1003.29 1002.83 1001.61 1000.01 998.40 996.23 994.85 994.25 993.83 993.40 992.98 993.15 993.46 994.06
1016.26 1015.27 1014.65 1014.70 1013.17 1010.15 1009.41 1008.84 1009.23 1009.21 1007.23 1005.33 1005.07 1004.58 1003.79 1004.86 1006.06 1005.99 1006.24 1006.42 1007.16 1006.42 1005.80 1002.71 1002.75 1002.45 1003.64 1002.87 1003.42 1003.46 1004.02 1004.17 1003.88 1002.58 1002.15 999.40 997.05 993.93 993.53 993.11 992.91 992.37 992.22 992.76 993.33
1016.15 1015.25 1014.65 1012.22 1012.03 1009.73 1009.08 1009.04 1008.91 1008.34 1006.33 1005.83 1005.86 1004.89 1003.99 1004.13 1005.50 1004.96 1005.64 1006.76 1007.13 1006.44 1005.47 1003.84 1002.69 1002.31 1003.03 1002.35 1002.67 1004.43 1005.42 1004.91 1004.40 1003.15 1001.72 998.97 996.50 993.32 991.93 992.01 992.51 992.28 992.26 992.43 992.89
1015.53 1014.83 1014.45 1012.78 1010.35 1009.53 1009.37 1008.65 1007.86 1007.34 1007.50 1007.26 1006.73 1005.52 1004.24 1003.81 1004.19 1004.14 1004.45 1005.48 1007.25 1007.39 1006.10 1003.66 1001.29 1000.91 1001.98 1001.70 1001.92 1002.89 1005.32 1005.02 1004.37 1002.66 999.81 997.20 996.04 992.76 990.77 990.57 991.16 991.66 992.06 992.18 992.37
1015.17 1014.18 1012.44 1011.27 1009.89 1009.59 1009.43 1008.59 1007.71 1008.07 1008.43 1008.51 1007.78 1005.82 1004.63 1004.16 1004.40 1004.13 1004.05 1005.61 1007.99 1008.51 1007.60 1005.07 1001.56 1000.83 1000.26 1000.42 1000.58 1001.98 1003.40 1004.99 1003.71 1001.03 998.19 996.09 993.31 991.22 989.40 989.33 989.81 990.72 991.21 991.54 991.59
1014.58 1012.23 1011.49 1010.35 1009.86 1009.55 1009.09 1008.01 1009.09 1009.34 1009.61 1009.17 1008.11 1006.72 1005.92 1005.19 1005.32 1004.63 1004.51 1006.80 1008.40 1009.23 1009.39 1007.30 1003.34 1000.99 1000.30 999.03 999.37 1003.28 1003.42 1004.13 1004.52 1001.17 998.67 993.65 992.35 990.19 989.17 987.93 988.63 989.81 990.83 990.91 991.05
1015.05 1011.86 1010.35 1010.11 1009.73 1009.51 1008.71 1009.07 1009.63 1010.29 1010.14 1009.97 1008.81 1008.18 1007.02 1006.39 1005.88 1005.33 1005.48 1007.82 1008.69 1009.23 1009.53 1008.36 1005.57 1001.28 999.50 998.18 998.77 1000.39 1002.16 1002.81 1003.21 1001.65 998.10 994.13 992.25 989.63 988.87 987.96 987.49 988.76 989.81 990.27 990.47
1014.75 1011.00 1010.13 1009.78 1009.36 1008.68 1009.15 1009.81 1010.15 1010.20 1010.43 1010.26 1009.77 1008.94 1008.39 1007.31 1006.71 1006.06 1006.02 1007.72 1008.29 1008.78 1008.33 1007.95 1007.36 1002.67 999.55 997.24 996.97 999.35 1001.36 1003.00 1003.79 1002.95 999.77 995.23 992.61 990.78 989.85 987.65 987.53 988.35 989.24 989.62 990.01
1014.41 1011.15 1010.40 1009.70 1008.98 1009.41 1009.67 1010.25 1010.35 1009.97 1010.23 1010.26 1010.23 1009.55 1008.93 1008.15 1007.41 1006.45 1006.31 1007.07 1008.07 1008.70 1008.13 1008.24 1006.95 1004.15 1000.65 997.70 996.03 997.05 1000.12 1002.23 1002.99 1002.17 1000.47 997.97 994.56 992.55 991.03 988.14 987.65 988.03 988.96 989.30 990.15
1015.71 1011.45 1010.85 1010.65 1010.30 1010.57 1010.46 1009.99 1010.01 1009.81 1010.27 1010.44 1010.48 1010.04 1009.15 1008.76 1007.92 1007.03 1006.51 1006.73 1006.73 1007.56 1008.51 1009.01 1007.39 1004.73 1000.73 996.62 996.08 996.64 998.37 1000.26 1001.94 1002.32 1000.61 998.80 996.93 995.10 991.67 990.09 988.24 988.24 988.88 989.53 990.41
1016.17 1012.33 1011.31 1011.10 1011.06 1011.66 1011.01 1010.15 1009.74 1009.81 1010.30 1010.34 1010.24 1009.70 1009.59 1009.09 1008.17 1007.34 1006.98 1006.49 1006.82 1007.70 1008.37 1008.83 1007.93 1005.97 1003.80 1001.28 999.19 997.41 996.58 998.42 999.68 1001.03 1000.71 1000.45 999.06 996.92 992.79 991.12 990.13 989.79 990.25 990.65 991.01
1016.43 1014.45 1014.35 1012.63 1011.94 1011.63 1010.87 1010.29 1010.15 1009.93 1010.25 1009.89 1009.87 1009.93 1009.73 1008.88 1008.29 1007.74 1007.52 1007.06 1007.21 1007.49 1007.38 1007.77 1006.83 1005.62 1003.72 1000.75 998.31 996.60 996.13 997.30 997.92 998.37 999.64 1001.21 1000.64 997.95 995.51 994.11 993.81 993.26 994.03 991.91 992.64
1017.92 1017.15 1015.57 1014.32 1012.54 1011.44 1010.49 1010.77 1010.69 1010.35 1010.49 1010.09 1010.08 1009.91 1009.46 1008.95 1008.99 1008.45 1008.41 1008.12 1007.71 1007.35 1007.26 1007.07 1006.30 1005.15 1001.90 998.85 997.33 996.31 996.33 996.24 997.00 997.58 1000.04 1000.96 999.86 998.37 997.81 997.37 998.17 998.32 997.89 997.27 997.41
1018.62 1017.99 1016.98 1014.65 1012.87 1011.74 1011.28 1011.19 1010.94 1010.78 1010.59 1010.40 1010.07 1009.75 1009.47 1009.40 1009.20 1008.54 1008.23 1008.28 1008.27 1007.93 1007.25 1006.79 1006.30 1005.15 1002.64 1001.20 999.64 998.12 999.09 997.69 997.77 999.56 1000.61 1001.56 1001.49 1000.56 999.27 1000.13 1002.60 1003.15 1000.41 1000.37 1000.75
Wind_Speed
17 16 15 14 13 13 13 12 13 13 14 15 15 15 15 17 19 20 16 4 5 5 8 12 13 13 14 16 20 21 18 20 29 29 21 23 27 24 24 26 23 16 2 19 19
17 17 16 14 14 13 13 13 13 14 14 15 16 16 15 16 18 16 8 8 8 7 8 12 11 11 13 14 16 20 19 28 25 25 25 27 26 26 25 23 20 20 19 18 19
18 17 16 15 14 13 13 13 13 14 14 14 16 16 15 16 14 5 11 9 3 5 11 16 13 13 17 16 19 22 23 25 24 26 29 28 29 27 27 22 18 22 18 17 21
19 18 18 15 15 14 13 13 13 14 14 14 15 15 15 12 5 10 12 8 4 9 12 13 11 13 15 19 19 25 27 27 26 29 25 26 29 28 24 22 15 19 18 22 19
18 19 18 16 15 14 14 14 13 13 14 13 14 13 12 9 6 12 8 9 9 13 10 12 14 15 17 16 19 25 25 27 26 24 26 28 27 24 25 20 17 14 22 20 19
18 19 19 17 16 15 14 13 13 13 13 13 13 11 8 13 10 14 6 5 12 10 11 12 14 17 20 18 22 22 25 23 26 23 25 24 25 23 22 19 20 18 17 12 25
19 19 19 19 17 16 15 14 13 12 13 11 10 9 12 16 2 2 7 10 10 10 11 13 13 14 15 20 18 18 25 22 24 22 24 24 25 28 22 18 22 24 19 14 25
21 20 19 20 18 17 16 14 13 13 11 9 8 10 8 5 5 8 11 13 9 5 10 11 12 17 15 17 22 23 21 18 23 25 21 25 25 25 25 22 23 25 21 15 8
22 21 20 21 19 17 15 12 14 12 9 8 8 10 6 3 9 6 6 9 11 7 7 8 9 12 13 15 16 17 21 24 23 22 23 25 29 27 24 26 23 22 20 15 13
23 24 21 20 18 15 15 13 5 9 8 10 11 9 8 9 7 11 10 1 10 11 13 11 12 11 13 11 13 18 22 22 23 22 24 28 26 27 26 25 24 22 21 15 16
25 24 22 18 16 12 13 6 5 6 14 13 16 14 14 13 12 10 4 8 12 10 14 9 11 14 15 13 15 18 20 26 26 27 26 25 26 26 23 25 23 23 21 18 14
26 25 22 18 13 9 7 8 14 10 16 19 7 8 11 2 9 5 9 13 16 14 21 17 17 21 15 15 14 16 21 26 23 26 27 26 26 24 23 25 26 23 25 22 18
27 25 22 17 9 5 11 16 12 10 8 2 7 10 7 7 8 13 6 11 19 21 20 23 22 10 9 20 17 18 20 21 23 26 27 21 25 22 22 24 23 21 25 20 17
28 25 21 17 5 14 15 14 11 10 5 4 12 4 13 17 9 12 10 14 16 21 21 20 20 11 8 13 21 19 19 22 20 21 17 19 15 21 23 22 23 21 26 21 19
28 26 21 7 12 11 15 9 8 4 2 10 9 17 17 10 4 7 7 7 14 24 22 30 26 11 24 14 18 22 8 8 15 18 15 24 13 14 23 21 24 20 20 22 20
26 25 20 3 7 13 14 12 7 7 7 9 22 21 19 10 6 3 4 5 9 13 21 32 26 21 15 17 6 13 5 12 13 6 7 21 19 19 20 24 22 19 17 19 19
30 22 13 10 13 13 11 9 7 9 19 16 25 24 23 11 14 14 12 9 9 10 9 25 16 10 12 17 12 15 8 3 6 8 15 18 17 21 24 27 29 24 22 20 22
31 23 9 11 12 10 9 12 6 17 15 21 19 23 14 20 19 19 14 10 9 14 11 12 17 12 7 15 14 6 10 3 7 12 12 23 18 24 23 24 30 29 27 25 21
31 8 6 10 12 9 11 7 9 14 17 19 21 14 19 21 17 23 11 6 7 13 6 8 9 21 21 11 13 3 9 7 6 20 8 17 25 23 23 20 29 29 25 25 21
10 8 8 13 12 10 8 3 11 13 14 16 15 12 21 20 20 22 13 4 6 6 3 6 11 21 21 12 9 11 8 3 4 5 5 8 7 12 17 18 24 28 27 24 21
5 6 7 15 9 7 9 9 12 13 14 12 16 17 18 18 21 22 12 4 4 12 8 6 3 17 28 10 7 7 4 5 2 4 5 6 8 10 8 16 22 25 26 22 22
8 7 8 11 7 9 10 10 10 12 13 9 12 13 16 20 18 13 20 7 5 5 10 5 6 12 27 21 9 4 12 9 2 5 9 8 2 14 20 12 24 25 24 22 23
10 10 2 6 7 9 12 10 15 15 13 10 11 13 16 16 14 18 11 7 1 12 7 8 5 10 19 10 5 3 12 17 7 4 9 6 5 15 18 19 14 23 23 21 23
8 7 7 9 8 12 14 13 16 13 8 15 13 13 16 17 16 14 13 15 13 5 1 6 5 7 4 20 21 18 3 16 8 0 3 4 11 11 17 11 4 16 18 18 17
7 7 6 7 11 13 15 12 20 16 14 15 9 16 18 18 14 13 19 20 20 1 7 2 8 16 19 26 30 22 8 12 1 5 9 13 11 8 12 18 19 29 27 19 19
7 7 8 16 12 18 8 15 16 20 18 10 13 17 16 14 16 21 19 15 8 10 12 11 6 17 20 14 12 4 4 4 8 4 14 10 9 15 13 16 20 23 19 23 24
8 8 8 11 15 14 14 17 20 18 7 16 16 15 17 18 19 18 15 11 12 14 14 8 7 13 8 22 25 3 22 16 16 26 12 7 11 12 15 13 18 15 18 16 17
Wind_Direction
349 346 341 336 332 329 324 322 321 324 324 324 326 317 314 314 304 278 248 16 28 12 321 282 265 260 247 248 249 244 244 246 248 250 258 260 263 259 236 238 255 240 137 118 119
347 346 343 336 330 324 320 320 319 320 322 323 322 318 314 314 301 281 113 99 57 13 284 278 296 262 237 245 232 235 244 243 255 261 261 270 267 265 264 220 217 235 101 116 138
348 346 342 336 327 322 318 313 311 312 312 315 317 315 312 309 289 80 133 108 142 267 272 283 284 274 273 245 243 231 246 253 253 252 267 271 266 268 267 256 199 216 139 145 144
347 344 342 334 327 317 312 308 307 308 311 313 312 312 309 296 332 119 137 145 208 283 281 275 270 264 262 261 250 251 246 249 253 267 266 257 269 273 279 282 222 203 231 159 165
343 342 340 333 323 315 309 304 305 305 306 307 307 312 305 233 261 128 143 179 240 241 279 298 293 286 274 268 264 258 252 255 250 255 263 271 275 273 266 276 300 216 217 193 172
338 340 336 330 323 313 305 301 302 301 302 302 299 303 270 281 96 143 224 256 256 284 291 294 287 289 289 290 286 285 278 263 257 254 255 261 263 265 269 271 289 275 253 227 169
334 330 331 329 323 313 305 301 302 297 296 291 281 275 274 261 1 289 229 260 291 297 296 300 300 281 286 286 278 278 272 275 271 252 252 256 254 253 259 260 261 265 255 240 173
332 329 327 327 323 316 306 301 297 295 287 270 260 270 266 12 343 286 267 269 261 241 291 301 295 286 284 288 283 275 282 266 248 250 246 249 245 239 243 253 252 253 253 223 221
330 327 327 326 322 315 304 295 288 284 269 239 240 223 306 179 235 222 299 307 314 300 261 286 293 280 287 270 267 252 258 254 255 249 243 236 241 244 236 234 244 251 249 206 212
332 332 327 323 318 309 295 284 304 270 224 218 244 267 238 290 349 319 273 285 291 297 270 224 257 237 233 232 261 279 269 244 251 258 228 236 233 237 244 232 230 240 248 221 214
334 330 326 321 313 306 304 215 218 189 228 270 284 238 282 340 341 304 317 252 257 258 266 244 251 271 291 286 292 293 271 280 285 288 257 238 234 236 229 249 226 216 241 234 197
336 333 330 323 313 305 273 276 1 307 310 285 269 269 286 148 277 31 290 283 287 265 269 261 243 258 277 272 269 274 275 278 267 277 276 247 241 228 228 231 245 200 225 234 176
336 335 332 327 310 237 233 351 339 346 298 293 251 278 296 254 298 294 235 303 282 284 285 288 291 352 260 295 257 251 264 258 264 266 273 267 243 229 224 226 233 214 215 223 181
335 334 332 329 278 312 358 343 349 1 264 35 359 20 282 284 33 354 347 285 290 293 298 291 288 278 249 258 273 276 254 255 259 267 266 276 251 221 226 222 223 243 195 214 201
334 330 327 321 313 318 344 343 7 251 315 18 354 326 304 53 267 320 298 308 331 304 300 281 288 260 300 272 250 278 299 326 294 258 284 270 256 237 215 203 216 228 192 202 188
334 328 334 321 226 326 336 324 280 239 354 8 349 330 332 349 148 282 216 171 260 296 286 283 291 282 260 268 219 101 343 274 293 257 260 245 243 237 206 191 209 212 220 199 205
330 324 312 312 331 336 332 295 252 27 342 351 338 324 308 10 358 333 322 35 25 335 344 300 286 269 221 250 243 237 177 248 234 207 236 213 223 241 219 191 195 204 213 230 202
323 316 264 258 335 338 303 281 338 5 359 338 330 311 352 358 356 340 330 356 46 7 312 334 322 1 236 218 249 263 162 182 274 211 214 220 207 222 219 214 193 197 201 217 210
311 261 248 355 330 325 307 39 -0 355 343 334 318 344 341 357 345 332 11 40 24 30 351 311 288 318 305 241 241 40 226 188 240 256 232 203 205 209 223 225 183 187 206 210 209
317 289 30 339 331 306 313 359 356 360 346 335 329 336 335 344 341 333 11 67 3 337 123 285 293 298 282 235 204 169 141 240 239 311 279 162 209 202 190 214 202 180 193 200 204
262 279 24 345 308 295 22 2 352 334 346 332 322 317 339 331 338 325 29 78 331 356 321 249 312 293 303 228 258 177 80 47 4 255 274 199 175 2 333 162 166 182 179 195 193
297 329 32 332 6 353 18 316 334 339 1 337 320 337 319 337 331 325 332 21 47 326 333 343 281 294 298 276 292 172 163 188 44 322 315 284 231 344 311 216 169 171 175 187 187
304 302 130 272 10 359 353 331 335 354 355 351 322 319 329 335 326 326 338 305 143 13 12 353 329 324 330 277 167 260 111 97 92 331 257 278 309 341 320 305 168 166 173 164 183
284 335 335 311 17 352 338 327 335 358 355 326 319 327 339 326 333 309 350 342 6 25 352 172 262 256 263 289 302 299 15 120 145 81 289 68 333 31 303 129 75 143 150 163 198
328 354 16 306 328 316 313 322 339 345 338 327 336 340 329 318 331 331 332 330 334 119 334 232 291 314 295 270 262 251 350 146 184 314 53 15 342 199 31 32 35 26 351 165 187
355 336 330 294 310 300 334 353 331 336 335 342 330 329 319 318 343 317 321 317 302 333 329 314 293 315 300 314 331 7 1 78 31 3 70 72 31 46 17 34 37 37 13 50 59
1 336 296 294 311 322 353 328 330 334 332 324 319 325 320 341 315 301 284 272 269 286 299 306 320 329 304 342 319 338 355 327 64 60 103 50 10 23 5 28 49 43 11 48 71